Eagle River, WI

7:23 AM CDT on May 20, 2018 (GMT -0500)
Eagle River Union

Weather History for KEGV - March, 2013

Change the Weather History Date:

Thursday, March 14, 2013

  Actual Average Record
Temperature  
Mean Temperature 13 °F -  
Max Temperature 33 °F 32 °F 69 °F (2012)
Min Temperature -7 °F 10 °F -10 °F (1993)
Degree Days  
Heating Degree Days 52    
Moisture  
Dew Point 9 °F    
Average Humidity 68    
Maximum Humidity 85    
Minimum Humidity 38    
Precipitation  
Precipitation 0.03 in - - ()
Sea Level Pressure  
Sea Level Pressure 30.06 in    
Wind  
Wind Speed 3 mph (WSW)    
Max Wind Speed 15 mph    
Max Gust Speed 20 mph    
Visibility 10 miles    
Events      
Averages and records for this station are not official NWS values.
T = Trace of Precipitation, MM = Missing Value Source: NWS Daily Summary

Daily Weather History Graph

Daily Weather History Graph

Search for Another Location

Airport or City:

Astronomy

Mar. 14, 2013 Rise Set
Actual Time 7:11 AM CDT 7:01 PM CDT
Civil Twilight 6:41 AM CDT 7:31 PM CDT
Nautical Twilight 6:06 AM CDT 8:06 PM CDT
Astronomical Twilight 5:31 AM CDT 8:41 PM CDT
Moon 8:13 AM CDT (3/14) 10:31 PM CDT (3/14)
Length of Visible Light 12h 50m
Length of Day
11h 50m
Waxing Crescent, 9% of the Moon is Illuminated
Mar 14
Waxing Crescent
Mar 19
First Quarter
Mar 27
Full
Apr 2
Last Quarter
Apr 10
New

Hourly Weather History & Observations

Time (CDT) Temp. Windchill Dew Point Humidity Pressure Visibility Wind Dir Wind Speed Gust Speed Precip Events Conditions
12:15 AM 5.0 °F - 1.4 °F 85% 30.18 in 10.0 mi Calm Calm - N/A   Clear
12:35 AM 5.0 °F - 1.4 °F 85% 30.18 in 10.0 mi Calm Calm - N/A   Clear
12:55 AM 3.2 °F - -0.4 °F 85% 30.18 in 10.0 mi Calm Calm - N/A   Clear
1:15 AM 3.2 °F - -0.4 °F 85% 30.17 in 10.0 mi Calm Calm - N/A   Clear
1:35 AM 3.2 °F - -0.4 °F 85% 30.17 in 10.0 mi Calm Calm - N/A   Clear
1:55 AM 1.4 °F - -2.2 °F 85% 30.17 in 10.0 mi Calm Calm - N/A   Clear
2:55 AM -0.4 °F - -4.0 °F 85% 30.16 in 10.0 mi Calm Calm - N/A   Clear
3:15 AM -0.4 °F - -4.0 °F 85% 30.16 in 10.0 mi Calm Calm - N/A   Clear
4:15 AM -2.2 °F - -7.6 °F 78% 30.15 in 10.0 mi Calm Calm - N/A   Clear
4:55 AM -4.0 °F - -7.6 °F 85% 30.15 in 10.0 mi Calm Calm - N/A   Clear
5:15 AM -4.0 °F - -7.6 °F 85% 30.15 in 10.0 mi Calm Calm - N/A   Clear
5:55 AM -5.8 °F - -11.2 °F 77% 30.15 in 10.0 mi Calm Calm - N/A   Clear
6:15 AM -4.0 °F - -9.4 °F 78% 30.15 in 10.0 mi Calm Calm - N/A   Clear
6:35 AM -5.8 °F - -9.4 °F 84% 30.15 in 10.0 mi Calm Calm - N/A   Clear
6:55 AM -5.8 °F - -9.4 °F 84% 30.15 in 10.0 mi Calm Calm - N/A   Clear
7:15 AM -7.6 °F - -13.0 °F 77% 30.16 in 10.0 mi Calm Calm - N/A   Clear
7:35 AM -5.8 °F - -9.4 °F 84% 30.15 in 10.0 mi Calm Calm - N/A   Clear
7:55 AM -5.8 °F - -9.4 °F 84% 30.15 in 10.0 mi Calm Calm - N/A   Clear
8:15 AM -2.2 °F - -7.6 °F 78% 30.16 in 10.0 mi Calm Calm - N/A   Clear
8:35 AM -0.4 °F - -5.8 °F 78% 30.15 in 10.0 mi Calm Calm - N/A   Clear
8:55 AM 3.2 °F - -2.2 °F 78% 30.16 in 10.0 mi Calm Calm - N/A   Clear
9:15 AM 5.0 °F - 1.4 °F 85% 30.16 in 10.0 mi Calm Calm - N/A   Clear
9:35 AM 10.4 °F - 5.0 °F 79% 30.15 in 10.0 mi Calm Calm - N/A   Clear
9:55 AM 15.8 °F - 5.0 °F 62% 30.14 in 10.0 mi Calm Calm - N/A   Clear
10:15 AM 19.4 °F - 8.6 °F 63% 30.13 in 10.0 mi Calm Calm - 0.01 in   Clear
10:35 AM 23.0 °F - 8.6 °F 54% 30.11 in 10.0 mi Calm Calm - 0.02 in   Clear
10:55 AM 26.6 °F 18.2 °F 10.4 °F 51% 30.10 in 10.0 mi SW 8.1 mph - 0.02 in   Clear
11:15 AM 28.4 °F 23.3 °F 8.6 °F 43% 30.10 in 10.0 mi South 4.6 mph - N/A   Clear
11:35 AM 30.2 °F 24.3 °F 10.4 °F 44% 30.10 in 10.0 mi SW 5.8 mph - 0.01 in   Clear
12:15 PM 32.0 °F 27.5 °F 10.4 °F 41% 30.09 in 10.0 mi WSW 4.6 mph - N/A   Clear
12:35 PM 32.0 °F 24.2 °F 12.2 °F 44% 30.07 in 10.0 mi SW 9.2 mph - N/A   Clear
12:55 PM 32.0 °F 27.5 °F 10.4 °F 41% 30.08 in 10.0 mi SW 4.6 mph - N/A   Clear
1:15 PM 32.0 °F 26.4 °F 10.4 °F 41% 30.09 in 10.0 mi WSW 5.8 mph - N/A   Clear
1:35 PM 32.0 °F 25.6 °F 10.4 °F 41% 30.07 in 10.0 mi SSW 6.9 mph - N/A   Clear
1:55 PM 33.8 °F 26.4 °F 10.4 °F 38% 30.06 in 10.0 mi SW 9.2 mph - N/A   Clear
2:15 PM 33.8 °F 28.6 °F 12.2 °F 41% 30.05 in 10.0 mi SW 5.8 mph - N/A   Clear
2:35 PM 32.0 °F 23.0 °F 14.0 °F 48% 30.06 in 10.0 mi WSW 11.5 mph - N/A   Mostly Cloudy
2:55 PM 33.8 °F 25.8 °F 14.0 °F 44% 30.05 in 10.0 mi West 10.4 mph 18.4 mph N/A   Overcast
3:15 PM 33.8 °F 23.9 °F 15.8 °F 48% 30.04 in 10.0 mi SW 15.0 mph - N/A   Overcast
3:35 PM 33.8 °F 24.3 °F 17.6 °F 52% 30.04 in 10.0 mi WSW 13.8 mph 19.6 mph N/A   Overcast
3:55 PM 33.8 °F 25.8 °F 15.8 °F 48% 30.01 in 10.0 mi SW 10.4 mph - N/A   Overcast
4:15 PM 33.8 °F 25.8 °F 15.8 °F 48% 30.01 in 10.0 mi SW 10.4 mph - N/A   Overcast
4:35 PM 32.0 °F 23.0 °F 19.4 °F 60% 30.01 in 10.0 mi WSW 11.5 mph 16.1 mph N/A   Overcast
4:55 PM 33.8 °F 24.8 °F 19.4 °F 56% 30.00 in 10.0 mi WSW 12.7 mph - N/A   Overcast
5:15 PM 32.0 °F 23.6 °F 19.4 °F 60% 30.00 in 10.0 mi SW 10.4 mph - N/A   Overcast
5:35 PM 33.8 °F 27.7 °F 19.4 °F 56% 29.98 in 10.0 mi SW 6.9 mph - N/A   Overcast
5:55 PM 32.0 °F 24.2 °F 21.2 °F 64% 29.97 in 10.0 mi SW 9.2 mph - N/A   Overcast
6:15 PM 32.0 °F 24.8 °F 21.2 °F 64% 29.97 in 10.0 mi SW 8.1 mph 11.5 mph N/A   Overcast
6:35 PM 32.0 °F 23.0 °F 21.2 °F 64% 29.96 in 10.0 mi WSW 11.5 mph - N/A   Overcast
6:55 PM 32.0 °F 24.2 °F 23.0 °F 69% 29.95 in 10.0 mi SW 9.2 mph - N/A   Overcast
7:15 PM 32.0 °F 24.2 °F 23.0 °F 69% 29.96 in 10.0 mi WSW 9.2 mph - N/A   Overcast
7:35 PM 30.2 °F 23.4 °F 23.0 °F 75% 29.95 in 10.0 mi WSW 6.9 mph - N/A   Mostly Cloudy
7:55 PM 30.2 °F 21.9 °F 23.0 °F 75% 29.96 in 10.0 mi WSW 9.2 mph - N/A   Scattered Clouds
8:15 PM 30.2 °F 21.9 °F 23.0 °F 75% 29.95 in 10.0 mi WSW 9.2 mph - N/A   Scattered Clouds
8:55 PM 28.4 °F 19.1 °F 23.0 °F 80% 29.94 in 10.0 mi WSW 10.4 mph - N/A   Clear
9:15 PM 26.6 °F 18.2 °F 21.2 °F 80% 29.94 in 10.0 mi WSW 8.1 mph - N/A   Scattered Clouds
9:35 PM 30.2 °F 22.6 °F 23.0 °F 75% 29.94 in 10.0 mi West 8.1 mph - N/A   Mostly Cloudy
9:55 PM 30.2 °F 20.8 °F 24.8 °F 80% 29.94 in 10.0 mi WSW 11.5 mph - N/A   Overcast
10:15 PM 30.2 °F 20.2 °F 24.8 °F 80% 29.94 in 10.0 mi West 12.7 mph - N/A   Overcast
10:35 PM 30.2 °F 19.8 °F 24.8 °F 80% 29.92 in 10.0 mi West 13.8 mph 18.4 mph N/A   Overcast
10:55 PM 30.2 °F 19.8 °F 24.8 °F 80% 29.93 in 10.0 mi West 13.8 mph - N/A   Overcast
11:35 PM 30.2 °F 21.3 °F 24.8 °F 80% 29.91 in 10.0 mi West 10.4 mph - N/A   Overcast
11:55 PM 30.2 °F 21.9 °F 24.8 °F 80% 29.91 in 10.0 mi West 9.2 mph - N/A   Overcast